Regional Weather Roundup
Issued by NWS

Home | Current Version | Previous Version | Graphics & Text | Print | Product List | Glossary On
Versions: 1 2 3 4 5 6 7 8 9 10 11 12 13 14 15 16 17 18 19 20 21 22 23 24 25 26 27 28 29 30 31 32 33 34 35 36 37 38 39 40 41 42 43 44 45 46 47 48 49 50
000
ASUS43 KDTX 271201
RWRMI
MICHIGAN HOURLY REGIONAL WEATHER ROUNDUP
NATIONAL WEATHER SERVICE DETROIT/PONTIAC MI
800 AM EDT THU JUL 27 2017

NOTE: "FAIR" INDICATES FEW OR NO CLOUDS BELOW 12,000 FEET WITH NO
SIGNIFICANT WEATHER AND/OR OBSTRUCTION TO VISIBILITY.

MIZ047>049-052>055-059>063-066>070-074>076-081>083-271300-
SOUTHEAST LOWER MICHIGAN

CITY           SKY/WX    TMP DP  RH WIND       PRES   REMARKS
ADRIAN         CLOUDY    69  65  86 CALM      29.96F
6HR MIN TEMP:  65; 6HR MAX TEMP:  69;

ALMA           HVY RAIN  68  66  95 NE5       29.98R
ANN ARBOR      CLOUDY    69  68  96 CALM      29.96S
BAD AXE        CLOUDY    68  67  97 CALM      29.96S FOG
CARO           CLOUDY    69  66  89 CALM      29.97R
DETROIT CITY   CLOUDY    72  68  87 CALM      29.96S
6HR MIN TEMP:  70; 6HR MAX TEMP:  73;

DETROIT        CLOUDY    73  67  81 CALM      29.96S
6HR MIN TEMP:  68; 6HR MAX TEMP:  73;

FLINT          PTSUNNY   69  64  84 CALM      29.96S
6HR MIN TEMP:  66; 6HR MAX TEMP:  71;

GROSSE ILE     CLOUDY    72  65  79 CALM      29.96R
6HR MIN TEMP:  69; 6HR MAX TEMP:  74;

HILLSDALE      CLOUDY    68  64  88 CALM      29.96S
HOWELL         CLOUDY    68  64  89 CALM      29.96F
6HR MIN TEMP:  66; 6HR MAX TEMP:  68;


CITY           SKY/WX    TMP DP  RH WIND       PRES   REMARKS
JACKSON        CLOUDY    69  63  81 CALM      29.96S
6HR MIN TEMP:  65; 6HR MAX TEMP:  71;

LAMBERTVILLE   CLOUDY    68  66  93 CALM      29.95S
6HR MIN TEMP:  64; 6HR MAX TEMP:  68;

LANSING        CLOUDY    70  64  81 S3        29.96S
6HR MIN TEMP:  70; 6HR MAX TEMP:  72;

LAPEER         PTSUNNY   67  66  96 CALM      29.97S
6HR MIN TEMP:  65; 6HR MAX TEMP:  70;

MASON          CLOUDY    65  64  96 CALM      29.96S
MONROE         CLOUDY    68  67  96 CALM      29.95S
MT. CLEMENS    CLOUDY    70  70 100 W2        29.95S
6HR MIN TEMP:  66; 6HR MAX TEMP:  71;

PONTIAC        CLOUDY    70  66  87 CALM      29.95F
6HR MIN TEMP:  68; 6HR MAX TEMP:  71;

PORT HOPE        N/A     71  67  87 NW5       29.94S
6HR MIN TEMP:  68; 6HR MAX TEMP:  71; 6HR PCP:  0.17;

PORT HURON     CLOUDY    70  68  94 CALM      29.97R FOG
TRI CITIES     LGT RAIN  69  69 100 CALM      29.97S FOG
6HR MIN TEMP:  69; 6HR MAX TEMP:  71; 6HR PCP:  0.10;

MIDLAND        LGT RAIN  69  69 100 CALM      29.96R
6HR MIN TEMP:  67; 6HR MAX TEMP:  69; 6HR PCP:  0.02;

TROY           CLOUDY    72  67  83 CALM      29.98S
SAGINAW HB     RAIN      68  66  94 CALM      29.96S
$$
MIZ043>046-050>051-056>058-064>065-071>073-077>080-271300-
SOUTHWEST LOWER MICHIGAN

CITY           SKY/WX    TMP DP  RH WIND       PRES   REMARKS
BATTLE CREEK   CLOUDY    71  66  84 CALM      29.95F
6HR MIN TEMP:  66; 6HR MAX TEMP:  71;

BENTON HARBOR  CLOUDY    71  67  87 CALM      29.92F
6HR MIN TEMP:  68; 6HR MAX TEMP:  72;

BIG RAPIDS     CLOUDY    68  66  95 W6        29.97R FOG
6HR MIN TEMP:  67; 6HR MAX TEMP:  68; 6HR PCP:  0.28;

COLDWATER      CLOUDY    71  68  92 CALM      29.95S
6HR MIN TEMP:  66; 6HR MAX TEMP:  71;

FREMONT        CLOUDY    69  69 100 E3        29.95S
HOLLAND        CLOUDY    74  68  81 CALM      29.95R
6HR MIN TEMP:  70; 6HR MAX TEMP:  74;

GRAND RAPIDS   CLOUDY    72  67  84 E3        29.95S
6HR MIN TEMP:  70; 6HR MAX TEMP:  73;

IONIA          CLOUDY    70  66  88 N5        29.96R
6HR MIN TEMP:  67; 6HR MAX TEMP:  72;

KALAMAZOO      CLOUDY    70  64  81 CALM      29.94F
6HR MIN TEMP:  66; 6HR MAX TEMP:  71;

LUDINGTON      PTSUNNY   68  68 100 NE5       29.96S FOG
6HR MIN TEMP:  66; 6HR MAX TEMP:  68; 6HR PCP:  0.10;

MARSHALL       CLOUDY    67  67  99 CALM      29.95F
6HR MIN TEMP:  63; 6HR MAX TEMP:  70;

MOUNT PLEASANT DRIZZLE   69  67  92 CALM      29.96S
6HR MIN TEMP:  69; 6HR MAX TEMP:  70; 6HR PCP:  0.22;

MUSKEGON       CLOUDY    71  69  93 E5        29.95S FOG
6HR MIN TEMP:  71; 6HR MAX TEMP:  73; 6HR PCP: TRACE;

SOUTH HAVEN    CLOUDY    71  69  93 CALM      29.94S
$$
MIZ016>042-271300-
NORTHERN LOWER MICHIGAN

CITY           SKY/WX    TMP DP  RH WIND       PRES   REMARKS
ALPENA         PTSUNNY   66  66 100 CALM      29.98S
6HR MIN TEMP:  64; 6HR MAX TEMP:  68; 6HR PCP:  0.05;

BELLAIRE       CLOUDY    64  64  97 CALM      29.99S FOG
6HR MIN TEMP:  62; 6HR MAX TEMP:  69;

CADILLAC       PTSUNNY   69  65  88 N5        29.99R
CHARLEVOIX     MOSUNNY   64  64 100 CALM      30.02S
6HR MIN TEMP:  63; 6HR MAX TEMP:  67;

FRANKFORT      SUNNY     70  65  85 NE5       29.99R
GAYLORD          N/A     64  61  90 CALM      30.00S
6HR MIN TEMP:  63; 6HR MAX TEMP:  66; 6HR PCP: TRACE;

GRAYLING       PTSUNNY   65  62  91 CALM      30.01R
6HR MIN TEMP:  64; 6HR MAX TEMP:  68;

HARBOR SPRINGS SUNNY     63  62  95 CALM      29.99S
HOUGHTON LAKE  PTSUNNY   68  66  93 CALM      29.99S
6HR MIN TEMP:  67; 6HR MAX TEMP:  70; 6HR PCP: TRACE;

MANISTEE       SUNNY     68  67  96 NE5       29.97R
OSCODA         CLOUDY    69  68  97 NW6       29.96R
6HR MIN TEMP:  65; 6HR MAX TEMP:  69;

PELLSTON       FOG       61  61 100 CALM      30.00R VSB 1/4
6HR MIN TEMP:  59; 6HR MAX TEMP:  64;

ROGERS CITY    CLOUDY    63  63  98 W3        30.00R
TRAVERSE CITY  MOSUNNY   68  65  90 CALM      29.98R
6HR MIN TEMP:  67; 6HR MAX TEMP:  71;

$$
MIZ007>008-015-271300-
EASTERN UPPER MICHIGAN

CITY           SKY/WX    TMP DP  RH WIND       PRES   REMARKS
KINROSS        SUNNY     59  57  93 NW8       30.00R
6HR MIN TEMP:  57; 6HR MAX TEMP:  62;

MACKINAC ISLAN SUNNY     61  61 100 N9        29.99R
6HR MIN TEMP:  60; 6HR MAX TEMP:  65;

NEWBERRY       SUNNY     58  57  97 CALM      30.01S
6HR MIN TEMP:  55; 6HR MAX TEMP:  58;

S. S. MARIE    SUNNY     63  57  81 W3        29.99R
6HR MIN TEMP:  55; 6HR MAX TEMP:  63;

MUNISING         N/A     63  58  83 CALM      30.03R
6HR MIN TEMP:  54; 6HR MAX TEMP:  63;

$$
MIZ004>006-011>014-085-271300-
CENTRAL UPPER MICHIGAN

CITY           SKY/WX    TMP DP  RH WIND       PRES   REMARKS
MANISTIQUE     SUNNY     60  57  89 N7        30.01R
6HR MIN TEMP:  54; 6HR MAX TEMP:  60;

ESCANABA       SUNNY     62  58  86 N3        30.02R
6HR MIN TEMP:  56; 6HR MAX TEMP:  62; 6HR PCP:  0.01;

MENOMINEE      SUNNY     63  59  87 CALM      30.02R
6HR MIN TEMP:  61; 6HR MAX TEMP:  66;

SAWYER-GWINN   SUNNY     63  55  77 N9        30.05S
$$
MIZ001>003-009>011-084-271300-
WESTERN UPPER MICHIGAN

CITY           SKY/WX    TMP DP  RH WIND       PRES   REMARKS
IRON MOUNTAIN  SUNNY     61  55  81 NW3       30.04R
6HR MIN TEMP:  54; 6HR MAX TEMP:  61;

HOUGHTON       SUNNY     64  54  69 E6        30.06R
6HR MIN TEMP:  57; 6HR MAX TEMP:  64;

COPPER HARBOR    N/A     63  52  67 CALM      30.06R
6HR MIN TEMP:  58; 6HR MAX TEMP:  64;

IRONWOOD       SUNNY     57  55  93 CALM      30.08S
6HR MIN TEMP:  53; 6HR MAX TEMP:  58;

$$

ABBREVIATIONS USED IN REMARKS
   TC - TEMPERATURE IN CELSIUS
  WCI - WIND CHILL INDEX
   HX - HEAT INDEX
  VSB - VISIBILITY





USA.gov is the U.S. government's official web portal to all federal, state and local government web resources and services.